Flag for Norfolk Island Weather past 2 weeks in Kingston, Norfolk Island

Now
64 °F

Partly cloudy.


Feels Like: 64 °F
Forecast: 62 / 68 °F
Wind: 10 mph from Northeast

Location: Norfolk Island Airport

Current Time: Aug 30, 2015 at 12:46:49 AM

Latest Report: Aug 30, 2015 at 12:00 AM


Visibility: N/A

Pressure: 30.21 "Hg

Humidity: 83%

Dew point: 59 °F

Location of KingstonLocation

Historic Weather in Kingston — Graph

°F

Kingston temperature yesterday

Maximum temperature yesterday: 68 °F (at 10:30 AM)
Minimum temperature yesterday: 61 °F (at 4:00 AM)
Average temperature yesterday: 64 °F

Past Weeks' High & Low Weather Summary

 TemperatureHumidityPressure
High70 °F (Aug 26, 12:30 PM)100% (Aug 27, 5:30 AM)30.36 "Hg (Aug 27, 5:30 AM)
Low54 °F (Aug 18, 1:00 AM)43% (Aug 18, 1:30 PM)29.98 "Hg (Aug 16, 2:00 PM)
Average60 °F67%30.22 "Hg
* Reported Aug 14 11:30 PM — Aug 29 11:30 PM, Kingston, Weather by CustomWeather, © 2015

Note: Actual official high and low records may vary slightly from our data, if they occured in-between our weather recording intervals... More about our weather records

Advertising

Kingston weather history for previous 24 hours

 ConditionsComfort  
Time TempWeatherWind HumidityBarometerVisibility
11:30 PM
Sat, Aug 29
64 °FPartly cloudy.12 mph83%30.21 "HgN/A
10:30 PM64 °FPartly cloudy.12 mph83%30.21 "HgN/A
9:30 PM64 °FPartly cloudy.10 mph88%30.21 "HgN/A
9:00 PM64 °FPassing clouds.9 mph78%30.21 "HgN/A
8:30 PM64 °FPassing clouds.9 mph78%30.21 "HgN/A
7:30 PM64 °FPassing clouds.8 mph78%30.21 "HgN/A
6:30 PM63 °FPassing clouds.8 mph83%30.21 "HgN/A
5:30 PM64 °FPassing clouds.7 mph78%30.21 "HgN/A
5:00 PM66 °FPassing clouds.8 mph73%30.21 "HgN/A
4:30 PM66 °FScattered clouds.12 mph73%30.21 "HgN/A
4:00 PM66 °FScattered clouds.12 mph73%30.21 "HgN/A
3:30 PM66 °FBroken clouds.12 mph73%30.21 "HgN/A
3:00 PM66 °FPartly sunny.13 mph73%30.21 "HgN/A
2:30 PM66 °FScattered clouds.14 mph78%30.21 "HgN/A
2:00 PM66 °FPassing clouds.15 mph73%30.21 "HgN/A
1:30 PM66 °FPassing clouds.14 mph73%30.24 "HgN/A
1:00 PM68 °FPassing clouds.13 mph69%30.24 "HgN/A
12:30 PM66 °FPassing clouds.16 mph73%30.24 "HgN/A
12:00 PM66 °FPassing clouds.13 mph68%30.27 "HgN/A
11:30 AM68 °FPassing clouds.15 mph69%30.27 "HgN/A
11:00 AM66 °FPassing clouds.15 mph73%30.30 "HgN/A
10:30 AM68 °FScattered clouds.14 mph69%30.30 "HgN/A
9:30 AM66 °FPassing clouds.8 mph73%30.30 "HgN/A
9:00 AM63 °FPassing clouds.7 mph88%30.30 "HgN/A
8:30 AM63 °FScattered clouds.8 mph88%30.27 "HgN/A
8:00 AM61 °FPartly sunny.10 mph94%30.27 "HgN/A
7:30 AM61 °FBroken clouds.10 mph88%30.27 "HgN/A
7:00 AM61 °FMore clouds than sun.10 mph88%30.27 "HgN/A
6:30 AM61 °FBroken clouds.14 mph88%30.27 "HgN/A
6:00 AM63 °FPassing clouds.9 mph77%30.27 "HgN/A
5:30 AM63 °FPassing clouds.9 mph77%30.24 "HgN/A
5:00 AM63 °FPartly cloudy.8 mph77%30.24 "HgN/A
4:30 AM63 °FMostly cloudy.8 mph77%30.24 "HgN/A
4:00 AM61 °FOvercast.6 mph88%30.24 "HgN/A
3:30 AM63 °FOvercast.8 mph77%30.24 "HgN/A
2:30 AM63 °FOvercast.10 mph77%30.27 "HgN/A
2:00 AM63 °FPartly cloudy.8 mph77%30.27 "Hg5 mi
1:30 AM63 °FPassing clouds.7 mph73%30.27 "HgN/A
12:30 AM63 °FPartly cloudy.10 mph73%30.27 "HgN/A
Weather by CustomWeather, © 2015

See weather overviewHow to use our weather pages